This demonstration page uses our WeatherBlox Daily Observations layout. Learn more.

Left ArrowRight Arrow

34.16533, -84.80231

Hourly Observations for October 20, 2019

Temp ( °F °C ) Dew Point ( °F °C ) Humidity (%) Winds ( mph kmh ) Pressure ( in mb ) Visibility ( mi km ) Precip ( " mm )
12:37 am 00:37 Cloudy with Mist and Fog 58 14.4 56 13.3 93 93 Calm 29.79 1009 5 8 0.00 0.00
12:48 am 00:48 Cloudy with Mist and Fog 57 14 55 13 94 94 Calm 29.79 1009 3 5 0.00 0.00
12:53 am 00:53 Cloudy with Mist and Fog 58 14.4 56 13.3 93 93 Calm 29.77 1008 3 4 0.00 0.00
1:16 am 01:16 Cloudy with Mist and Fog 59 15 56 13.3 90 90 Calm 29.79 1009 3 5 0.00 0.00
1:27 am 01:27 Cloudy with Mist and Fog 58 14.4 56 13.3 93 93 Calm 29.79 1009 4 6 0.00 0.00
1:49 am 01:49 Cloudy with Mist and Fog 57 14 57 14 100 100 Calm 29.78 1008 4 6 0.01 0.25
1:53 am 01:53 Cloudy with Mist and Fog 58 14.4 57 13.9 97 97 Calm 29.76 1008 4 6 0.01 0.25
2:53 am 02:53 Cloudy with Mist and Fog 58 14.4 56 13.3 93 93 Calm 29.78 1008 3 5 0.00 0.00
3:53 am 03:53 Cloudy with Mist and Fog 58 14.4 56 13.3 93 93 Calm 29.78 1009 4 6 0.00 0.00
4:36 am 04:36 Cloudy with Mist and Fog 58 14.4 56 13.3 93 93 Calm 29.81 1009 3 4 0.00 0.00
4:53 am 04:53 Cloudy with Mist and Fog 58 14.4 56 13.3 93 93 Calm 29.80 1009 2 3 0.00 0.00
5:20 am 05:20 Cloudy with Mist and Fog 58 14.4 56 13.3 93 93 Calm 29.83 1010 3 5 0.00 0.00
5:53 am 05:53 Cloudy with Mist and Fog 58 14.4 56 13.3 93 93 Calm 29.81 1010 4 6 0.00 0.00
6:53 am 06:53 Cloudy 58 14.4 56 13.3 93 93 Calm 29.84 1010 7 11 0.00 0.00
7:37 am 07:37 Cloudy 58 14.4 56 13.3 93 93 Calm 29.88 1012 7 11 0.00 0.00
7:53 am 07:53 Cloudy 58 14.4 56 13.3 93 93 Calm 29.87 1011 8 13 0.00 0.00
8:00 am 08:00 Cloudy 59 15 56 13.3 90 90 Calm 29.89 1012 8 13 0.00 0.00
8:53 am 08:53 Cloudy 59 15 57 13.9 93 93 Calm 29.89 1012 7 11 0.00 0.00
9:18 am 09:18 Cloudy 60 15.6 57 13.9 90 90 Calm 29.91 1013 8 13 0.00 0.00
9:53 am 09:53 Cloudy 61 16.1 57 13.9 87 87 VRB 3 6 29.91 1013 10 16 0.00 0.00
10:53 am 10:53 Cloudy 62 16.7 58 14.4 86 86 NNW 5 7 29.93 1014 10 16 0.00 0.00
11:44 am 11:44 Cloudy 65 18.3 59 15 81 81 N 5 7 29.94 1014 10 16 0.00 0.00
11:53 am 11:53 Cloudy 65 18.3 59 15 81 81 Calm 29.93 1014 10 16 0.00 0.00
12:53 pm 12:53 Cloudy 68 20 60 15.6 76 76 Calm 29.93 1014 10 16 0.00 0.00
1:17 pm 13:17 Cloudy 70 21.1 60 15.6 71 71 VRB 3 6 29.93 1014 10 16 0.00 0.00
1:53 pm 13:53 Cloudy 70 21.1 60 15.6 71 71 VRB 5 7 29.91 1013 10 16 0.00 0.00
2:53 pm 14:53 Cloudy 73 22.8 61 16.1 66 66 VRB 3 6 29.89 1012 10 16 0.00 0.00
3:53 pm 15:53 Cloudy 72 22.2 60 15.6 66 66 Calm 29.90 1012 10 16 0.00 0.00
4:53 pm 16:53 Cloudy 72 22.2 60 15.6 66 66 VRB 3 6 29.91 1013 10 16 0.00 0.00
5:05 pm 17:05 Cloudy 73 22.8 60 15.6 64 64 Calm 29.92 1013 10 16 0.00 0.00
5:45 pm 17:45 Mostly Sunny 72 22.2 59 15 64 64 Calm 29.92 1013 10 16 0.00 0.00
5:53 pm 17:53 Mostly Sunny 71 21.7 59 15 66 66 Calm 29.92 1013 10 16 0.00 0.00
6:53 pm 18:53 Sunny 65 18.3 61 16.1 87 87 Calm 29.92 1013 10 16 0.00 0.00
7:53 pm 19:53 Clear 63 17.2 60 15.6 90 90 Calm 29.93 1014 10 16 0.00 0.00
8:53 pm 20:53 Clear 62 16.7 60 15.6 93 93 Calm 29.94 1014 10 16 0.00 0.00
9:53 pm 21:53 Clear 59 15 57 13.9 93 93 Calm 29.95 1014 7 11 0.00 0.00
10:53 pm 22:53 Clear 58 14.4 56 13.3 93 93 Calm 29.96 1015 8 13 0.00 0.00
11:13 pm 23:13 Mostly Clear 57 13.9 55 12.8 93 93 Calm 29.99 1016 8 13 0.00 0.00
11:53 pm 23:53 Mostly Clear 57 13.9 55 12.8 93 93 Calm 29.97 1015 8 13 0.00 0.00

Powered by AerisWeather